Location: Deep South Regional Star Gaze
(30.9929°N, 90.9586°W)
Time: 10:58:34
(UTC-05:00)

Daily predictions for brighter satellites

Satellite Brightness Start Highest point End
(mag) Time Altitude Azimuth Time Altitude Azimuth Time Altitude Azimuth
SL-8 R/B 4.0 20:31:24 10° SW 20:36:13 76° NW 20:41:03 10° NE
Hubble Space Telescope 2.5 20:35:34 10° WSW 20:38:41 21° SSW 20:41:48 10° SSE
Cosmos 1943 3.2 20:34:19 10° NNW 20:40:00 72° ENE 20:45:34 10° SSE
Cosmos 1315 Rocket 3.9 20:37:33 10° SSE 20:40:56 26° E 20:44:21 10° NE
Spot 2 Rocket 4.4 20:43:00 10° SE 20:47:26 32° ENE 20:51:52 10° N
Cosmos 1953 2.3 20:43:37 10° N 20:47:38 89° E 20:51:38 10° S
Cosmos 1420 Rocket 4.4 20:49:01 10° N 20:53:59 46° ENE 20:58:50 11° SE
Cosmos 1844 Rocket 3.0 20:49:07 10° S 20:54:26 43° ESE 20:59:45 10° NE
Cosmos 1452 Rocket 3.7 20:49:26 10° N 20:54:38 55° ENE 20:59:46 10° SSE
SJ-6B 3.8 20:53:08 10° S 20:56:53 48° W 21:00:45 10° NNW
NOAA 11 4.5 20:53:47 10° SSE 20:58:59 51° ENE 21:04:13 10° N
Cosmos 1844 4.2 20:55:40 10° S 21:00:48 37° ESE 21:06:00 10° NE
YAOGAN 6 3.2 21:00:06 10° S 21:03:33 54° W 21:07:01 10° NNW
CZ-3C R/B 3.4 20:45:21 10° WSW 21:05:18 26° S 21:09:28 14° SE
Cosmos 1238 Rocket 3.1 21:03:43 16° SE 21:05:25 26° E 21:07:57 10° NNE
Cosmos 2285 Rocket 4.0 20:59:31 10° S 21:05:48 69° ESE 21:12:04 10° NNE
Cosmos 1400 Rocket 3.7 21:02:02 10° SSW 21:05:59 52° W 21:09:53 10° N
BREEZE-M R/B 1.8 21:08:35 10° NW 21:11:45 77° SW 21:13:05 23° SE
Lacrosse 5 3.8 21:07:13 10° WSW 21:11:47 33° NW 21:16:22 10° NNE
Cosmos 2266 Rocket 4.0 21:07:08 10° N 21:13:30 75° E 21:19:45 10° S
Cosmos 1470 4.0 21:10:10 10° NNW 21:13:52 42° W 21:17:35 10° SSW
Cosmos 1346 Rocket 4.2 21:14:21 10° NNE 21:17:37 23° ENE 21:19:03 19° ESE
Aureole 1 Rocket 4.1 21:15:19 10° SW 21:18:10 35° WNW 21:21:28 10° N
Meteor 1-24 Rocket 3.9 21:12:56 10° S 21:18:50 60° E 21:24:44 10° NNE
Cosmos-2242 4.2 21:15:50 10° NNE 21:19:34 26° E 21:21:20 20° ESE
Cosmos 494 Rocket 4.3 21:15:00 10° S 21:19:58 46° ESE 21:24:59 10° NNE
Cosmos 1607 4.3 21:14:13 10° NW 21:20:27 62° WSW 21:26:14 11° SSE
H-2A R/B 3.2 21:18:46 18° ESE 21:21:39 28° ENE 21:26:10 10° NNE
Timation 1 Rocket 4.3 21:16:06 10° S 21:21:59 69° ESE 21:27:56 10° NNE
Cosmos 1269 Rocket 4.1 21:18:37 10° SSW 21:23:55 83° WNW 21:29:14 10° NNE
ATLAS 2AS CENTAUR R/B 3.4 21:26:29 10° SW 21:34:05 69° WNW 21:42:10 10° NNE
Centaur D-1AR AC-36 3.3 21:17:14 10° W 21:36:09 40° SSW 21:38:59 24° SSE
Aurora 2 Rocket 3.8 21:30:54 10° WSW 21:36:27 50° S 21:41:56 19° ESE
Cosmos 1908 4.4 21:34:25 10° NNE 21:37:41 26° E 21:38:07 25° E
In-Cosmos 22 4.4 21:35:15 10° SSW 21:40:43 71° W 21:46:21 10° N
SEDSat Delta rocket 3.4 21:35:28 10° WSW 21:40:51 54° SSE 21:43:33 25° E
Iridium 4 Rocket 3.9 21:35:24 10° S 21:41:07 72° W 21:46:26 10° N
Cosmos 1553 Rocket 4.3 21:37:48 22° SSE 21:41:19 45° E 21:47:01 10° NNE
Cosmos 1953 Rocket 4.0 21:39:56 10° SSW 21:44:12 61° W 21:48:33 10° N
MetOp-B 4.4 21:43:42 28° SE 21:46:10 50° ENE 21:51:20 10° N
Palapa 6 Rocket 4.3 21:41:34 10° WSW 21:46:10 34° S 21:47:51 29° SSE
ERS-1 Rocket 3.7 21:46:45 28° ESE 21:48:21 35° ENE 21:52:55 10° N
Cosmos 1674 2.5 21:50:20 37° S 21:51:45 79° E 21:55:35 10° N
Cosmos 1437 2.5 21:49:05 10° N 21:52:15 83° E 21:52:33 70° SSE
DMSP B5D2-2 4.3 21:49:55 10° NNE 21:54:57 47° E 21:56:33 36° SE
Cosmos 2251 Rocket 3.6 21:56:52 32° SSE 21:59:05 54° ESE 22:04:17 10° NNE
Meteor 2-1 Rocket 4.5 21:55:52 10° N 22:01:41 56° E 22:03:44 38° SE
USA 215 3.2 21:58:50 31° SE 22:02:16 90° NE 22:08:51 10° NW
Terra 3.8 22:02:30 14° ENE 22:02:41 14° ENE 22:05:11 10° NE
Resurs 01 Rocket 3.7 21:59:31 10° SSW 22:03:00 23° W 22:06:30 10° NW
ERS-2 4.1 22:00:37 13° SSW 22:03:01 24° W 22:06:02 10° NW
H-2A R/B 4.2 22:09:35 26° ESE 22:09:35 26° ESE 22:19:01 10° E
Cosmos 1726 2.8 22:04:03 10° N 22:07:13 41° ENE 22:07:13 41° ENE
NOSS 3-4 (A) 3.3 22:05:41 10° SSW 22:11:47 72° ESE 22:18:02 10° NNE
NOSS 3-4 (C) 3.3 22:05:47 10° SSW 22:11:52 71° ESE 22:18:07 10° NE
Cosmos 921 Rocket 3.0 22:08:18 10° NNW 22:12:49 83° ENE 22:13:34 61° SSE
OAO 3 Rocket 3.6 22:08:39 10° WNW 22:13:33 59° N 22:15:31 34° ENE
USA 245 4.5 22:12:58 41° SSE 22:15:14 72° ENE 22:21:39 10° N
Delta 198 4.4 22:11:24 10° WSW 22:17:16 45° S 22:17:29 45° S
OAO 3 Copernicus 4.3 22:13:08 10° WNW 22:18:08 61° SSW 22:18:43 56° S
Cosmos 1461 3.1 22:15:56 23° SSW 22:18:46 79° WNW 22:23:30 10° NNE
ARGOS 3.6 22:17:48 31° SSW 22:20:18 59° W 22:25:39 10° NNW
Cosmos 2278 Rocket 2.0 22:18:53 34° S 22:21:27 79° ESE 22:27:09 10° NNE
H-II Stage 2 4.1 22:23:19 10° WSW 22:23:56 13° SW 22:23:56 13° SW
ATLAS 3B CENTAUR R/B 4.0 22:09:38 10° WSW 22:30:22 61° S 22:35:03 32° ESE
Meteor 1-21 Rocket 4.2 22:30:00 46° S 22:31:55 88° E 22:37:44 10° N
Cosmos 1745 Rocket 3.9 22:36:24 10° N 22:42:42 86° E 22:43:58 60° SSE
Meteor 2-13 Rocket 4.3 22:36:50 10° N 22:42:56 77° E 22:43:50 64° SE
SL-14 R/B 4.1 22:44:52 48° NNW 22:44:52 48° NNW 22:47:50 10° N
COSMOS 2406 3.1 22:39:58 10° NNW 22:45:44 79° WSW 22:46:26 68° S
SPOT 5 2.8 22:45:39 84° SSE 22:45:51 90° E 22:51:06 10° NNW
ATLAS 5 CENTAUR R/B 2.0 22:55:48 59° NW 22:55:48 59° NW 23:00:18 10° NNE
ATLAS 3B R/B 2.4 22:52:46 10° NNW 22:59:23 86° ENE 23:00:07 72° SE
SPOT 1/Viking Rocket 3.6 23:00:46 67° W 23:00:46 67° W 23:05:53 10° NNW
H-2A R/B 3.6 22:59:23 24° SW 23:00:55 28° W 23:05:26 10° NW
USA 238 DEB 3.9 22:56:44 10° NW 23:03:51 66° WSW 23:05:06 57° SSW
USA 238 3.9 22:56:50 10° NW 23:03:57 67° WSW 23:05:12 58° SSW
Helios 1A 4.0 23:05:04 43° NW 23:05:04 43° NW 23:08:13 10° NNW
Cosmos 1626 4.2 23:06:16 24° N 23:06:16 24° N 23:07:51 10° N
Cosmos 2297 4.0 23:06:54 54° NE 23:06:54 54° NE 23:11:27 10° NNE
Cosmos 1241 Rocket 4.3 23:07:45 76° ENE 23:07:45 76° ENE 23:13:40 10° NNE
Helios 1B rocket 3.7 23:06:51 10° N 23:10:02 38° NW 23:10:02 38° NW
Cosmos 2082 Rocket 3.3 23:10:10 10° N 23:14:50 34° NE 23:14:50 34° NE
NOSS 3-2 (A) 4.0 23:07:48 10° NNW 23:15:41 88° WSW 23:17:06 66° SSE
Cosmos 1833 Rocket 3.5 23:10:42 10° N 23:15:19 39° NE 23:15:19 39° NE
Cosmos 1709 Rocket 3.9 23:09:46 10° N 23:15:45 76° ENE 23:15:45 76° ENE
CZ-2C R/B 3.0 23:16:51 10° NNE 23:21:06 57° NNE 23:21:06 57° NNE
Aureole 3 Rocket 4.3 23:24:37 65° SSW 23:25:50 79° W 23:32:00 10° N
Aurora 2 Rocket 4.4 23:23:29 10° W 23:28:29 44° SW 23:28:29 44° SW
Terra 3.2 23:41:23 35° NW 23:41:23 35° NW 23:44:33 10° NNW
NOSS 3-2 (C) 3.9 23:33:43 10° NNW 23:41:37 83° WSW 23:42:13 77° S
